Track STARLINK-3271 now! 10-day predictions STARLINK-3271 is classified as:
1 50167U 21125M 22182.42659598 .00000300 00000-0 36964-4 0 9998 2 50167 53.2171 187.2200 0002939 38.7397 321.3805 15.08827160 33062